Location: Cuzcurrita-R�o Tir�n
(42.5415°N, 2.9642°W)
Time: 18:12:20
(UTC+00:00)

Meteor 1-5 Rocket - Pass Details

Date: 27 February 2020
Orbit: 790 x 915 km, 81.2° (Epoch: 31 March)

Event Time Altitude Azimuth Distance (km) Brightness Sun altitude
Rises 19:49:37 0° 180° (S) 3,319 7.2 -21.2°
Reaches altitude 10° 19:51:58 10° 178° (S) 2,407 6.5 -21.6°
Maximum altitude 19:57:22 69° 97° (E) 900 4.0 -22.6°
Drops below altitude 10° 20:03:00 10° 15° (NNE) 2,507 6.6 -23.7°
Sets 20:05:29 0° 13° (NNE) 3,468 7.4 -24.1°
